Retour au catalogue

CZ-6A DEB

ActifPO
NORAD 54938·DEBRIS·🇨🇳 China

Lancé Nov 11, 2022 depuis Taiyuan Satellite Launch Center

Loading…

Prochains Passages (prochaines 24 heures)

TLE

FraisSource: Space-Track

Époque: Sep 12, 2026, 11:02 UTC

1 54938U 22151SB  26255.45974707  .00012277  00000-0  11222-2 0  9992
2 54938  99.1524  71.2478 0060497   3.2659 356.8939 14.93800335204006

Suivez CZ-6A DEB en temps réel avec AllMySat

Download on the App Store